Погода Котельниково

Погода Котельниково : погода сейчас, прогноз погоды и архив. Всё, что Вы хотите узнать о погоде Котельниково!

Поиск расширенной информации на нашем сайте:

Другие новости

Новости СМИ2

Главная страница сайта

Новости сайта

03.07.2017

Напоминаем, что на нашем специализированном сайте Метеоцентр.Азия вы можете получить высокодетализированные автоматические прогнозы погоды по пунктам России, СНГ и мира в авиационном формате (включающие направление и скорость ветра, видимость, явления погоды, количество и форму облачности, нижнюю и верхнюю границу облачности).


Погода Котельниково - сегодня

Время (UTC), дата Ветер
(°,м/с) 
Видим.   Явления Облачность Т
(°С)
Тd
(°С)
f(%) Тe
(°С)
Pmin
(гПа)
dP
(гПа)
Po
(мм)
O2
(г/м3)
Тmin Tmax R s Состояние
почвы
09 16.08.18 180 (Ю) 10 км    3/3 600 м 
[Cu hum]
+33.8 +7 19 +34  1015.7  -0.6  758  271           
12 16.08.18 190 (Ю) 10 км    5/5 600 м 
[Cu med, cong]
+33.7 +7.1 19 +34  1014.5  -1.1  757  270           
15 16.08.18 130 (ЮВ) 10 км    4/4 600 м 
[Cu hum]
+33.9 +4.9 16 +34  1013.6  -0.9  756  270    +35.2       
18 16.08.18 040 (СВ) 10 км    4/0 средняя 
[Ac trans]
+29.4 +6.5 24 +29  1014.5  0.8  757  274           
21 16.08.18 080 (В) 10 км    ясно 
+24.2 +6.7 32 +24  1014.6  757  279           
00 17.08.18 тихо ()   10 км    3/0 средняя 
[Ac trans]
+19.4 +8.6 50 +19  1015  0.3  757  283           
03 17.08.18 тихо ()   10 км    6/6 600 м 
[Cu med, cong]
+18.1 +7.4 50 +18  1015.4  0.4  757  285  +18        сухая 
06 17.08.18 020 (С) 10 км    4/0 средняя 
[Ac cuf]
+29.1 +5 22 +29  1015.2  757  275           
09 17.08.18 010 (С) 10 км    ясно 
+33.1 +4.2 16 +33  1013.9  -1.2  756  271           
12 17.08.18 290 (З) 10 км    3/3 600 м 
[Cu hum]
+34.5 +3.6 14 +35  1012.3  -1.6  755  270           
15 17.08.18 320 (СЗ) 10 км    3/3 600 м 
[Cu hum]
+32.5 +3.3 16 +33  1011.5  -0.8  755  271    +35.1       
18 17.08.18 300 (СЗ) 10 км    ясно 
+23.9 +12.8 50 +29  1012.1  0.5  755  277           
21 17.08.18 060 (СВ) 10 км    ясно 
+24.8 +10 39 +26  1012.3  0.2  755  277           
00 18.08.18 030 (СВ) 10 км    ясно 
+22 +12.5 55 +26  1012.3  755  279           
03 18.08.18 040 (СВ) 10 км    ясно 
+20.2 +13.5 65 +26  1013.7  1.3  756  281  +19.4        сухая 
06 18.08.18 050 (СВ) 5{10}  10 км    8/8 600 м 
[Sc]
+23.3 +12.6 51 +28  1014.2  0.6  756  278           
09 18.08.18 060 (СВ) 6-13{13}  10 км    3/0 средняя 
[Ac trans]
+28.4 +11 34 +31  1013.9  -0.2  756  274           
12 18.08.18 040 (СВ) 5-10{13}  10 км    4/4 600 м 
[Cu hum]
+28.9 +10.4 32 +30  1013.7  -0.2  756  274           
15 18.08.18 040 (СВ) 6{11}  10 км    ясно 
+27.1 +7.8 29 +27  1014.5  0.7  757  276    +29.8       
18 18.08.18 040 (СВ) 3{11}  10 км    ясно 
+22.6 +2.9 27 +23  1016.8  2.2  758  282           
21 18.08.18 030 (СВ) 10 км    ясно 
+18.4 +2.5 35 +19  1017.2  0.3  759  286           
00 19.08.18 050 (СВ) 10 км    ясно 
+17.3 +2.3 37 +18  1018.2  759  287           
03 19.08.18 040 (СВ) 10 км    ясно 
+15.3 +4 47 +16  1019.3  1.1  760  289  +14.7        сухая 
06 19.08.18 060 (СВ) 10 км    ясно 
+21.4 +3.8 31 +21  1020  0.8  761  284           
09 19.08.18 040 (СВ) 4{10}  10 км    ясно 
+24.7 +0.9 21 +25  1019.2  -0.8  760  281           
Время (UTC), дата Ветер
(°,м/с) 
Видим.   Явления Облачность Т
(°С)
Тd
(°С)
f(%) Тe
(°С)
Pmin
(гПа)
dP
(гПа)
Po
(мм)
O2
(г/м3)
Тmin Tmax R s Состояние
почвы

Для получения пояснительной информации подведите курсор к названию столбца.

ПОГОДА Котельниково - архив

Всё, что Вы хотите узнать о погоде Котельниково - удобно и подробно!

Выберите нужную дату (начиная с 1 января 2015* года) и нажмите кнопку "Найти".
Будут отображены архивные сводки погоды по пункту Котельниково, начиная с указанной даты.


Отображать данные в формате CSV (для использования в таблицах Excel)


Внимание! Наш архив погоды предназначен исключительно для личного некоммерческого использования в познавательных целях. Если Вам необходимы официальные справки о состоянии погоды (для производственных, юридических, коммерческих и т.п. целей), обращайтесь в органы Росгидромета.

*Примечание: данная дата относится к архиву по метеостанциям СССР (Россия, СНГ, Балтия).
Архив по метеостанциям Зарубежной Европы и Азии (кроме Китая) хранится 10 дней, по другим регионам земного шара (Китай, Африка, Америка, Австралия, Океания) - 1 день.

Котельниково - район местоположения метеостанции


Название, широта, долгота, высота метеостанции:
Котельниково 47.6°ш. 43.2°д. 49 м над ур. моря [Российская Федерация]

Дополнительная информация

В oтличие oт бoльшинства пoгoдных сайтoв мы публикуем пoдрoбную метеoинфoрмацию в детальнoм прoфессиoнальнoм фoрмате.

Характеристики температуры и влажнoсти вoздуха измеряются на высoте 2 м в тени вдали oт зданий и деревьев.
Скoрoсть ветра измеряется на высoте 10 м (на урoвне рoста челoвека скoрoсть ветра ниже в 1.5-2 раза). Если метеoстанция нахoдится в гoрoде или в лесу, тo скoрoсть ветра занижена на 2-4 м/с пo сравнению с oткрытым местoм. Скoрoсть ветра над акватoриями крупных рек и oзёр, а также на вершинах хoлмoв на 2-5 м/с выше, чем в oбычных услoвиях.
Атмoсфернoе давление в разных тoчках местнoсти мoжет значительнo oтличаться oт давления на метеoстанции, в зависимoсти oт услoвий рельефа (при пoдъёме на 10 м давление пoнижается примернo на 1 мм рт.ст.).